DELTA 1 DEB, 21363

Orbit data source: Space-Track

DELTA 1 DEB, 21363 is space debris in SSO originally from a launch on Thu, 12 Jun 1975 UTC launched from the Air Force Western Test Range (AFWTR). Debris objects in space refer to the collection of defunct objects orbiting the Earth. Examples of debris include non-operational satellites, rocket bodies, and fragments generated from explosions, collisions, or faulty payload assembly.

Loading next visibility...
Identifier
21363, 1975-052CH
Orbit
SSO
Country
Flag of USUS
Related business
Manufacturer
Unknown
Mission
Spacecraft
Bus & Motor
Unknown
Mass
Unknown
Launch date (UTC)
1975-06-12 (50 years ago)
Launch vehicle
Unknown
Launch site
Air Force Western Test Range (AFWTR)
Object type
Payload
Rocket body
Debris
Shape & HBR
Unknown shape, 0.3 m
Radar Cross Section
Small (<0.1 m²)

Expand to show TLE details & history
Last TLE update: 12 hours ago

TLE from 12 hours ago
0 DELTA 1 DEB
1 21363U 75052CH  25300.39462905  .00000095  00000-0  35348-3 0  9992
2 21363  99.7316 232.3501 0175356  92.4002  26.5175 13.10240229645962
Epoch: 2025-10-27T09:28Z
TLE epoch observation values (Epoch: 2025-10-27T09:28:15.949Z)
Latitude
58.85484°
Longitude
-109.31368°
Altitude
1,113.286 km
Speed
7.358 km/s
True Right ascension
04h 34m 59s
True Declination
58° 42' 35"
Sunlit
Object was in full shadow at epoch
Visualization orbit readout
Latitude
Unknown
Longitude
Unknown
Altitude
Unknown
Speed
Unknown
Apparent Right ascension
Unknown
Apparent Declination
Unknown
Sunlit
N/A
Visualization observer readout
Local Sidereal Time
16:43:25
Azimuth
Unknown
Elevation
Unknown
Doppler factor
Unknown
Orbital elements
Apogee altitude
1,352.816 km
Perigee altitude
1,086.354 km
Semi-major axis
7,597.722 km
Eccentricity
0.01754
Inclination
99.7316°
RAAN
232.3501°
Arg. of periapsis
92.4002°
True anomaly
27.43255°
Mean anomaly
26.5175°
Eccentric anomaly
26.97321°
Mean motion
3.27731 °/min
Orbital period
109.85 mins
BSTAR
0.00035348
Loading maneuver chart data...
Computing Atmospheric mass density...
Loading historical data...
Loading historical data...
Loading historical data...
Loading historical data...
Loading historical data...
Loading historical data...
Loading historical data...

Documentation

Showing up to 5 results
|